map of GND home
Great Circle Mapper logo
GND - Airport
Location
City:  St. George's, Grenada, Grenada
Name:Maurice Bishop International Airport
Old (Alt.):Point Salines International Airport
ICAO / IATA:TGPY / GND

Details
Type:Airport (Aerodrome, Airfield)
Use:Public/Civil, International (customs port of entry)
Latitude:1200'15"N (12.004167)
Longitude:6147'17"W (-61.788055)
Elevation:39 ft (12 m)
Runways:1
Longest:8999 × 148 ft (2743 × 45 m), paved

Time
Time Zone:UTC-4
Local Time:

Weather
METAR:TGPY 230100Z 14009KT 9999 -SHRA FEW016CB SCT017 26/26 Q1012 CB-S
TAF:TGPY 221030Z 2212/2312 09008KT 9999 FEW014CB SCT019
TEMPO 2215/2218 6000 SHRA FEW012CB BKN017
BECMG 2222/2224 06009KT FEW012CB SCT017 BKN035
TEMPO 2307/2311 06009G25KT 4000 TSRA SCT010CB BKN015 BKN030

Related Locations
Nearby:
Farthest:TMC: 12241 mi / 19699 km
Tambolaka, ID

Find:

   beyond  
but within

Other Information
Maps:
NOTAMs:
Links:
Sources:

  
flag of Grenada   

Sectional Chart

Flight Planning
at skyvector.com

Satellite Image

Google Maps Satellite View

 

Copyright © 2004-2014 Karl L. Swartz. All rights reserved.
The Great Circle Mapper name and logo are trademarks of the Great Circle Mapper.
All other trademarks mentioned herein belong to their respective owners.
Please see credits for attibutions and further copyright information.

  Follow gcmap on Facebook Follow gcmap on Twitter

hCard Microformat

Geo Microformat